Theta_e
351 351 353 353 352 354 352 353 355 354 354 355 356 354 350 348 348 349 352 355 355 355 355 354 353 353 353 353 352 352 352 350 349 348 348 349 350 351 350 349 350 351 352 352 351 350 349 348 348 350 351 351 352 352 352 353 354 354 353 353 353 354 355
353 353 354 353 353 354 354 355 357 356 357 358 355 351 348 349 348 348 350 353 355 356 356 355 354 354 354 353 353 353 352 351 351 350 349 348 348 349 350 348 347 348 350 350 350 350 349 348 348 350 351 351 353 354 353 354 355 354 354 354 355 355 355
353 353 353 352 352 354 354 355 356 356 358 358 354 350 350 349 347 347 347 350 354 356 356 355 355 355 355 355 354 354 353 352 352 351 350 348 347 347 348 347 346 348 349 348 349 350 350 350 349 349 351 351 352 354 354 355 355 354 354 353 353 355 355
353 354 352 352 352 352 354 355 355 355 357 357 355 352 350 349 348 348 348 348 351 354 355 355 354 354 354 354 354 354 353 352 352 350 349 347 345 345 346 345 345 348 349 347 348 349 349 350 350 349 351 351 351 352 354 355 355 354 354 353 353 354 354
352 352 352 353 352 352 353 353 353 355 356 358 357 352 350 349 348 348 347 348 349 351 354 354 353 353 352 352 353 353 353 352 351 350 348 346 344 344 345 345 345 347 348 347 346 347 347 348 349 349 350 351 350 351 352 353 354 353 354 355 354 355 355
353 353 353 352 352 351 352 352 353 354 355 358 358 354 351 349 349 349 347 347 347 349 352 352 351 352 351 350 350 351 352 351 350 349 346 345 344 344 344 344 345 346 346 346 346 346 346 346 348 349 350 351 350 350 350 351 352 352 353 355 355 355 356
357 357 355 351 350 349 351 352 353 353 354 356 357 356 353 350 350 350 348 347 347 347 349 349 350 351 352 350 349 349 350 349 350 348 345 344 344 343 344 344 345 345 345 345 345 346 347 347 347 348 349 349 349 349 349 349 350 351 352 353 354 354 355
357 358 356 354 351 348 349 352 352 352 352 354 357 358 355 351 349 350 351 350 347 347 348 348 347 349 352 351 349 348 349 348 348 348 345 344 343 343 344 344 344 344 344 345 344 346 347 347 346 347 348 348 347 347 347 347 348 349 350 351 353 354 354
357 358 358 356 355 352 350 350 350 350 351 354 358 359 356 353 350 350 351 350 349 348 348 349 347 347 350 351 350 349 349 348 347 347 346 345 344 344 344 344 344 343 344 344 344 345 346 347 346 347 346 347 347 345 345 346 347 348 348 350 352 354 354
357 358 357 357 357 356 355 352 350 351 353 354 356 358 358 355 352 352 353 352 354 353 352 353 350 348 349 351 350 349 349 349 348 347 347 347 346 346 346 345 345 344 344 344 344 345 346 346 347 346 346 347 347 345 344 345 347 348 348 348 351 354 356
356 356 356 357 357 356 357 356 354 354 355 356 356 357 358 355 353 354 356 356 356 355 354 354 351 349 349 350 350 350 349 349 349 348 348 348 348 347 347 347 347 347 345 346 345 345 346 346 346 346 345 346 347 346 345 345 347 348 348 349 349 353 355
355 355 354 355 357 357 357 356 357 357 356 357 358 358 358 356 353 352 353 353 353 352 352 352 351 350 348 349 350 349 349 349 348 349 349 348 347 347 348 348 348 348 349 348 347 346 346 347 346 346 346 347 348 348 346 346 346 348 349 349 349 350 352
354 355 353 353 354 355 356 356 356 357 356 356 358 358 359 358 356 353 351 350 350 349 349 350 350 349 347 349 351 349 350 349 348 348 348 348 348 347 347 347 346 347 348 349 349 348 348 347 348 348 348 348 349 349 348 347 347 348 349 349 349 348 349
353 353 353 353 353 352 354 355 355 356 356 356 356 356 358 359 359 358 354 351 350 349 348 349 348 348 349 349 351 352 351 349 348 348 347 348 348 347 346 346 346 346 346 348 349 349 349 349 350 350 351 352 352 351 349 348 349 350 349 349 350 349 350
351 352 352 353 352 352 352 353 354 355 356 356 355 355 357 358 360 361 359 357 354 351 351 351 350 350 351 352 354 357 356 352 350 349 348 347 348 348 347 346 345 346 346 347 348 349 349 349 350 353 353 353 354 353 352 350 350 351 351 351 351 351 352
347 351 352 352 352 352 352 352 353 353 354 356 356 355 356 358 360 361 361 360 357 353 353 353 352 352 352 354 357 358 357 355 354 352 349 348 347 348 348 346 346 346 346 347 348 349 349 349 350 353 354 354 354 354 354 352 352 353 354 354 354 354 354
346 349 351 351 351 352 352 352 352 353 354 355 355 356 356 356 358 359 359 360 359 357 355 354 354 353 351 352 356 357 357 356 356 355 352 349 348 348 348 347 347 347 346 347 348 349 350 349 349 350 353 354 354 354 354 353 352 354 355 354 355 356 355
345 348 351 350 351 351 351 351 352 352 353 353 353 355 355 355 357 357 357 359 359 358 357 357 358 358 357 356 355 357 359 358 358 357 354 352 352 350 348 348 348 347 347 347 347 348 351 352 351 350 352 353 354 354 355 353 352 352 354 354 355 355 355
346 348 351 351 351 351 351 351 351 351 351 352 352 352 353 355 356 356 356 357 356 355 355 356 357 356 358 360 358 357 359 360 361 360 356 354 355 353 350 349 348 348 349 348 348 349 351 351 351 351 351 351 353 354 354 353 352 353 353 353 354 355 355
350 351 352 351 351 351 351 351 351 350 350 351 351 352 352 353 354 355 355 354 353 353 352 352 353 351 354 360 362 359 359 360 362 361 357 356 356 356 354 352 351 350 349 349 348 349 351 351 351 351 351 351 351 352 352 352 353 354 353 353 354 354 354
351 353 352 352 351 351 350 351 350 350 350 350 350 351 352 353 354 354 354 354 354 354 352 351 353 355 356 359 361 360 360 360 361 361 360 358 356 356 355 355 355 353 352 352 350 349 350 350 351 352 352 351 351 351 350 351 352 353 352 351 352 353 353
350 351 350 351 350 350 349 349 349 349 350 350 350 352 352 353 354 354 354 354 353 354 354 353 354 356 357 359 359 359 360 359 359 361 361 359 358 357 355 355 357 355 354 355 353 351 351 350 351 352 352 352 352 352 351 350 350 352 352 351 351 351 353
347 347 347 348 347 348 348 348 349 349 350 350 351 351 352 353 354 354 354 354 354 354 354 354 354 355 356 358 359 358 359 358 358 359 361 360 358 358 356 356 356 356 355 354 354 353 353 352 352 352 352 353 353 353 353 353 352 351 351 350 350 351 352
345 346 346 345 346 347 348 349 350 350 350 351 351 352 352 352 353 353 353 353 354 354 354 354 355 355 354 355 356 357 357 357 357 357 359 359 358 357 357 357 356 356 355 355 353 352 352 353 354 353 353 354 355 355 355 355 353 351 350 349 350 350 351
344 345 345 345 346 347 347 349 350 350 350 351 352 353 352 351 352 352 352 352 353 354 355 355 356 356 354 353 353 353 353 354 354 354 356 358 358 357 357 357 356 356 355 355 354 351 351 353 355 355 355 355 355 356 355 355 354 353 352 351 350 351 351
344 345 345 345 345 347 347 348 350 350 350 350 350 350 348 346 349 351 351 351 352 353 354 354 353 354 354 353 353 351 351 351 352 352 353 356 357 356 355 356 356 356 356 356 355 354 353 353 354 355 356 356 355 355 355 356 354 352 353 352 351 352 352
345 345 345 345 346 347 347 347 350 351 350 348 347 348 346 345 346 349 350 351 351 352 353 352 352 352 352 354 354 352 351 351 352 353 353 354 356 354 353 355 355 355 356 357 356 355 356 354 353 354 353 350 350 352 355 358 357 354 353 353 352 352 351
346 345 345 345 347 347 346 347 348 347 346 345 345 347 348 347 347 349 351 351 351 351 350 350 351 352 352 353 353 352 352 352 352 353 352 352 352 352 351 353 354 355 355 355 355 356 357 355 352 351 349 346 346 350 353 357 357 355 353 352 351 351 351
346 345 345 346 346 346 347 347 346 344 342 342 343 345 345 346 348 350 350 350 350 349 349 349 349 350 350 351 352 352 351 350 350 351 350 349 350 350 350 351 352 353 353 353 355 356 357 354 350 348 347 347 348 351 352 354 355 353 352 351 350 350 350
346 346 346 346 346 347 347 347 346 344 342 341 342 342 342 344 348 349 349 349 349 348 348 347 346 346 346 346 348 350 349 348 347 348 348 348 348 349 349 350 350 350 349 351 354 356 354 350 347 346 346 347 348 349 350 351 352 351 351 351 349 349 348
345 346 346 345 346 347 346 345 344 343 343 342 342 341 342 344 347 348 348 348 347 347 346 345 344 342 340 340 342 344 346 346 346 347 348 347 347 348 349 349 349 349 349 350 353 354 351 347 344 344 345 345 345 346 347 347 348 348 349 349 348 347 347
345 345 345 344 345 346 346 344 342 342 344 343 341 340 341 343 345 347 347 347 346 345 344 343 342 341 338 337 338 339 339 342 344 346 347 346 346 347 348 348 348 348 350 351 351 350 349 346 344 343 343 344 345 345 345 345 346 346 346 346 345 345 345
345 344 344 344 345 345 345 344 343 342 343 342 341 340 341 343 345 346 346 345 345 344 343 342 341 339 337 335 334 335 334 334 336 339 342 344 346 346 346 347 349 349 350 350 348 346 346 345 344 343 343 344 344 343 342 342 342 342 342 341 341 342 343
344 343 343 343 344 344 344 344 343 342 342 341 340 340 340 342 344 345 345 345 344 343 342 342 339 338 337 335 333 333 332 330 330 333 335 337 341 342 343 345 347 347 347 346 345 344 343 343 343 342 342 343 342 340 340 339 338 338 338 338 338 339 340
343 342 342 343 343 343 343 343 343 343 342 341 339 338 338 339 341 343 344 343 344 343 342 340 339 338 336 335 334 333 330 328 328 329 330 332 335 336 336 337 340 342 344 344 344 343 342 342 343 341 341 342 341 340 339 337 336 337 337 336 337 338 339
341 341 341 341 342 342 341 341 342 342 341 340 337 336 337 338 339 341 342 342 343 343 342 340 340 338 337 336 336 334 332 330 329 328 328 329 331 332 332 333 336 340 342 342 343 343 342 342 342 341 341 341 340 339 339 338 337 337 336 337 338 338 339
340 340 340 340 341 341 340 340 341 341 340 339 336 335 337 339 339 339 341 341 342 343 342 340 339 338 337 337 336 335 334 333 331 329 327 327 328 329 329 329 331 334 337 339 340 341 341 340 340 339 339 339 339 338 338 337 337 337 336 337 338 338 338
339 339 339 339 340 340 339 340 341 340 340 339 337 337 338 339 339 338 339 340 341 342 341 340 339 338 338 337 336 336 335 333 332 331 329 328 327 326 325 324 325 326 329 334 336 337 337 337 337 337 337 337 337 337 336 335 336 336 336 337 337 337 338
Wind_Speed
8 8 7 6 7 8 9 10 11 13 12 9 10 7 8 12 7 5 8 16 16 16 20 20 20 21 20 20 20 20 20 20 20 20 20 19 17 17 17 16 16 16 16 15 15 16 17 17 17 17 16 16 16 15 14 13 11 12 11 10 10 11 10
8 8 6 4 6 6 7 9 10 11 11 8 9 10 9 13 15 5 4 9 16 16 17 19 20 20 20 19 19 20 19 19 19 18 18 19 18 17 17 16 16 16 15 16 15 15 15 15 15 16 16 16 16 15 15 13 12 12 11 11 10 11 10
6 7 8 7 7 7 7 9 11 11 11 10 10 12 11 12 16 12 6 10 13 18 17 18 20 20 19 19 18 19 19 18 19 18 17 18 18 18 18 17 16 15 15 16 16 15 15 15 15 16 17 16 16 16 15 14 14 13 13 13 12 11 10
5 5 7 7 6 8 8 9 10 11 11 11 11 13 15 14 15 17 13 10 12 16 19 18 19 20 19 19 19 18 19 18 18 18 17 17 18 18 18 17 16 16 16 16 16 16 16 16 17 17 17 17 16 17 16 15 15 14 14 15 14 12 12
7 6 7 7 6 6 7 8 9 10 9 10 12 13 15 17 14 15 17 12 13 16 18 19 19 20 20 20 19 18 19 19 19 18 18 18 18 18 17 17 16 16 17 17 17 17 18 18 18 17 17 17 16 17 17 16 16 15 16 16 15 14 13
4 5 5 5 6 6 6 7 8 9 8 9 12 13 14 16 15 15 18 18 14 18 18 19 18 19 20 20 19 19 20 20 19 19 18 18 18 17 16 17 17 17 17 17 16 17 17 18 18 18 17 17 16 17 17 17 16 17 17 17 16 15 14
2 3 4 4 5 6 8 8 8 8 8 9 11 13 15 15 16 18 19 20 17 18 19 20 20 19 20 20 19 20 21 21 20 19 18 17 17 17 16 16 17 17 17 18 17 17 17 16 17 19 18 17 17 17 17 18 18 17 18 18 17 16 15
3 2 3 4 4 5 7 9 9 10 10 11 12 12 15 16 17 18 19 20 20 17 17 19 21 20 20 20 19 19 20 21 21 20 19 18 17 17 17 17 17 17 16 17 17 17 18 17 17 18 19 18 18 18 18 19 19 17 18 19 18 16 14
4 3 2 2 1 1 4 7 9 10 9 10 10 11 13 16 18 18 18 20 20 17 17 19 21 21 21 20 19 19 20 20 20 20 19 19 18 17 17 16 17 16 16 17 17 18 18 18 17 18 19 19 19 19 19 20 21 19 18 19 19 17 15
3 4 3 3 3 2 2 5 7 8 9 8 9 10 12 16 19 18 16 18 18 17 17 19 16 17 21 22 20 19 20 20 20 20 20 19 19 18 18 17 16 17 17 17 17 18 19 19 18 18 18 17 18 19 19 20 22 20 18 17 17 16 16
2 3 3 4 4 1 1 3 4 5 8 8 9 10 11 15 19 20 18 18 18 20 21 19 14 12 16 21 22 20 20 21 20 20 21 20 19 19 19 18 16 17 18 18 16 16 18 19 19 19 18 17 17 18 19 19 19 19 18 16 16 17 17
2 2 2 3 4 4 2 2 4 4 6 7 9 10 10 13 17 20 21 19 18 21 22 20 16 12 15 18 21 21 21 21 21 21 21 21 20 20 19 19 17 16 17 18 16 15 16 18 18 18 18 18 17 17 18 18 17 17 18 17 17 18 18
2 2 2 2 2 4 3 2 3 5 5 6 8 9 9 10 13 15 19 19 19 20 22 21 18 13 17 23 21 21 21 21 21 21 21 21 21 20 19 19 19 19 18 18 18 17 16 17 18 18 18 18 18 17 17 18 17 17 18 18 17 16 16
3 3 3 2 2 2 3 2 2 3 4 6 8 9 9 8 9 11 14 17 18 19 20 20 19 17 21 27 22 18 20 21 20 20 21 21 21 21 20 19 20 21 20 19 19 19 17 17 18 19 18 18 19 18 18 18 18 18 18 18 18 16 15
4 3 3 2 2 1 2 3 2 2 4 6 7 8 9 9 8 9 10 12 16 17 16 17 20 21 24 26 23 19 18 19 19 19 19 20 21 21 21 20 19 20 20 20 20 20 19 18 18 19 19 19 19 19 19 18 19 20 19 19 19 18 16
4 4 3 2 2 2 2 2 3 3 3 5 6 7 9 9 8 9 9 10 13 16 17 19 23 24 21 22 23 22 19 19 18 18 16 17 19 20 20 20 19 19 20 20 20 20 20 20 19 18 18 19 19 19 19 18 18 19 20 20 19 18 18
3 2 3 2 2 2 1 1 2 3 3 4 5 6 7 8 8 9 11 12 14 16 17 20 23 23 22 23 25 22 20 20 19 18 16 16 16 18 20 21 20 19 19 20 20 19 19 20 20 19 19 19 19 19 19 19 19 21 22 22 20 18 17
4 1 2 2 2 2 2 2 2 2 3 3 4 5 6 7 7 8 10 12 13 14 14 16 17 18 20 24 24 19 17 17 17 18 19 18 16 16 18 21 21 21 18 17 19 20 20 20 20 18 17 19 19 19 19 18 17 19 22 23 22 20 17
5 2 1 1 2 2 3 3 3 3 3 3 3 4 5 6 6 7 8 9 9 9 11 14 15 15 17 19 20 19 17 15 15 18 22 21 17 15 15 18 21 22 19 16 16 17 19 21 21 19 17 18 19 20 21 19 16 16 19 22 23 23 20
3 2 2 2 2 2 3 3 4 4 3 2 3 5 5 6 7 7 7 8 10 11 13 15 17 19 20 18 17 19 19 17 17 18 21 23 20 16 14 16 18 20 20 17 16 15 16 18 20 20 19 18 18 18 19 19 17 15 16 19 21 23 23
2 2 2 2 2 2 2 3 4 5 4 4 5 6 6 7 7 8 8 8 10 12 14 17 19 21 22 21 20 20 21 21 20 19 20 24 24 21 18 15 16 18 18 16 16 17 18 17 18 19 20 20 19 18 18 19 19 18 16 17 18 20 21
1 1 3 3 2 1 2 3 4 5 5 5 6 6 7 8 8 8 9 9 9 11 14 18 21 22 21 22 23 24 24 25 25 23 22 25 26 25 22 20 18 19 20 17 15 15 17 19 20 20 20 21 21 20 20 19 19 20 19 18 18 18 20
1 1 3 3 1 2 3 3 4 5 5 6 7 7 7 8 8 8 9 9 9 11 13 17 21 24 23 22 23 25 26 27 28 26 23 25 28 29 28 26 23 23 24 24 21 17 16 18 20 21 21 21 22 22 22 21 19 19 20 20 20 20 21
2 3 3 3 4 3 3 4 4 5 5 6 7 7 7 7 8 7 8 9 10 11 13 15 19 22 23 24 24 25 25 26 28 26 22 23 28 31 30 30 28 26 27 28 28 26 21 17 18 20 21 21 22 22 23 21 20 20 21 22 23 23 23
4 4 4 4 5 5 5 5 5 5 5 6 5 4 5 7 7 6 8 10 10 11 13 14 16 18 21 24 26 25 25 25 27 27 23 23 27 30 31 30 28 27 27 27 28 28 25 21 18 19 21 23 23 23 23 22 21 19 20 22 24 25 22
2 3 4 4 5 6 6 5 4 4 4 4 4 3 4 8 8 6 7 9 10 10 10 10 12 13 15 20 22 22 23 24 25 26 26 24 23 26 28 26 25 26 26 27 27 27 26 24 19 17 17 18 19 19 17 18 20 19 18 20 23 24 22
1 1 3 4 5 6 7 6 4 3 3 3 4 4 3 6 9 7 6 7 8 7 6 6 7 9 11 14 15 16 19 22 24 24 25 24 19 18 22 24 24 25 27 28 27 25 23 22 19 16 13 10 10 11 9 9 13 17 18 20 22 23 23
2 2 3 4 5 6 7 6 5 6 7 6 6 6 4 4 5 4 3 4 6 5 5 5 6 7 9 10 11 12 16 19 21 21 23 23 18 17 22 25 23 23 25 26 23 19 18 17 15 13 11 11 12 12 9 8 10 13 16 20 21 22 22
1 2 4 4 5 6 7 7 7 5 5 6 6 7 7 4 2 1 4 4 6 6 5 5 5 5 6 7 9 11 13 15 17 19 21 20 17 18 24 26 22 21 23 23 20 15 14 15 12 7 7 10 12 11 10 11 11 11 14 16 17 18 19
1 2 4 5 6 8 8 8 7 4 3 4 5 5 6 5 3 4 5 6 6 7 7 7 6 6 5 4 3 5 8 10 11 14 18 21 20 21 26 27 24 21 20 20 18 13 11 15 15 11 8 8 9 8 8 9 10 10 10 10 12 13 13
2 3 4 5 7 8 7 7 7 5 4 5 6 4 4 3 2 4 5 6 7 7 8 8 7 7 9 9 7 3 1 5 7 9 14 20 22 22 26 28 23 20 18 18 17 14 12 14 15 13 10 10 9 8 6 6 7 7 7 8 10 12 11
3 4 5 6 7 8 6 5 5 4 5 7 8 5 4 3 4 5 5 6 7 7 6 7 7 7 9 11 10 9 8 8 10 10 12 19 22 23 25 25 21 19 19 18 15 12 12 13 14 13 13 14 13 12 8 6 6 7 7 8 10 10 10
3 4 5 6 7 7 6 6 6 5 5 7 8 7 5 4 6 8 7 6 7 6 6 8 8 9 10 11 11 12 12 11 12 15 17 20 22 21 19 18 18 18 17 15 12 12 13 13 14 15 17 17 15 12 9 6 6 5 6 6 6 6 6
3 3 5 6 6 6 7 8 7 4 4 5 6 9 11 11 10 9 9 8 7 7 8 9 10 11 11 12 12 12 12 13 15 20 24 24 22 19 14 14 17 18 16 14 15 16 14 12 13 15 17 16 14 11 8 6 5 6 7 6 5 4 5
3 3 4 6 5 7 8 8 6 5 6 6 5 7 12 14 12 10 9 8 7 8 9 10 11 12 11 12 11 12 13 14 17 20 25 27 26 24 20 19 22 23 21 19 18 16 14 12 12 12 14 14 12 10 8 6 6 8 8 8 7 6 7
3 2 4 4 4 7 8 7 6 6 7 6 5 5 8 10 11 11 9 7 6 7 9 10 11 11 11 12 12 11 12 15 17 19 23 26 27 28 25 23 24 25 24 22 20 16 14 12 11 10 10 12 12 10 8 7 7 8 8 7 7 7 8
3 2 3 4 5 7 6 4 5 6 5 6 7 6 5 8 11 11 9 6 6 7 9 10 11 10 11 12 13 12 12 13 15 17 20 23 25 27 27 27 27 25 23 20 19 17 15 13 12 10 10 12 13 11 9 8 9 10 9 8 8 8 9
6 5 4 5 6 8 6 4 5 5 4 5 7 6 5 10 13 10 7 6 6 9 11 11 11 11 11 12 14 15 15 14 15 16 17 19 22 24 25 27 27 26 24 20 18 17 15 14 13 12 11 11 11 11 12 13 13 13 12 11 11 12 14
Wind_Direction
174 169 163 181 182 173 176 183 182 177 180 169 147 141 128 142 191 252 176 172 172 172 175 176 178 179 181 182 180 182 184 183 182 180 180 182 184 183 183 184 183 183 183 181 184 183 182 184 178 173 177 178 178 177 178 183 177 175 183 186 187 188 190
165 163 158 194 189 172 175 179 186 180 160 140 145 156 140 149 171 201 284 201 177 177 181 178 180 181 182 184 181 183 185 183 183 183 182 183 185 185 187 190 187 186 186 182 184 184 182 186 180 173 176 179 180 179 180 187 183 179 187 193 196 199 201
166 159 159 188 189 170 180 187 194 190 160 142 153 162 154 162 176 179 254 261 203 183 185 184 182 182 183 184 182 184 186 186 185 185 186 185 186 188 191 194 190 186 190 185 183 184 183 184 183 179 180 183 184 184 185 190 189 190 195 198 200 205 209
159 157 158 174 181 173 184 194 194 189 172 156 159 169 165 170 184 178 185 247 245 201 189 189 187 184 186 185 184 187 187 188 190 189 192 190 190 192 191 193 194 187 190 190 185 186 185 183 185 186 186 187 189 188 189 193 192 193 200 199 199 207 215
158 167 163 165 180 184 188 198 195 187 180 162 158 171 171 169 184 191 183 201 246 231 199 192 193 188 188 189 187 190 190 192 194 194 197 195 194 197 192 192 197 193 192 193 188 188 187 183 185 189 190 191 193 191 191 197 197 196 202 203 203 207 213
151 163 164 168 181 180 178 195 196 185 183 170 163 173 177 176 185 200 192 183 215 240 214 195 199 192 190 194 192 190 191 193 195 196 202 201 196 199 198 197 199 197 193 193 192 190 187 186 185 189 193 194 197 196 193 197 200 198 202 207 207 208 211
116 132 152 171 195 189 176 179 181 181 190 188 179 174 176 186 191 193 196 189 199 234 226 201 200 199 194 197 196 193 191 192 195 197 201 203 199 200 203 202 200 200 195 193 195 192 188 191 193 191 193 197 202 201 196 197 201 201 201 205 209 212 216
114 108 144 161 196 202 182 173 173 178 190 189 182 175 172 185 193 192 202 203 197 219 233 213 203 201 199 200 199 196 194 192 193 195 199 202 201 203 205 204 203 203 200 196 196 195 192 196 200 197 195 198 204 205 201 199 201 205 205 203 208 215 219
99 86 93 106 93 208 176 176 175 169 170 175 175 175 172 181 194 198 204 207 199 206 227 225 213 203 199 202 203 200 198 197 195 194 199 201 202 206 207 205 205 206 208 205 200 197 198 199 202 204 200 200 204 207 206 202 199 206 211 204 203 210 218
98 92 91 78 54 26 110 164 178 158 150 162 174 178 175 181 194 198 196 204 204 204 222 234 227 212 204 202 205 205 200 201 201 198 200 202 202 207 210 210 208 206 213 218 207 198 200 201 204 208 209 207 206 206 208 206 198 202 212 209 202 207 219
99 97 106 99 101 106 111 157 184 168 156 161 170 175 176 184 193 193 192 204 208 208 222 235 232 233 230 212 205 209 206 203 206 203 203 205 205 206 209 212 211 206 211 223 220 205 200 200 204 209 211 212 214 211 211 211 202 198 207 213 210 211 217
123 122 112 100 114 128 140 174 187 193 182 166 163 169 174 184 193 196 200 211 219 216 221 227 220 233 262 243 215 209 210 207 208 208 206 207 209 209 208 210 213 210 209 218 223 217 207 201 203 209 212 214 219 218 214 215 209 201 205 214 216 215 216
144 137 125 127 133 123 132 170 182 190 196 186 176 172 173 184 189 194 202 212 222 220 214 216 214 222 263 261 234 213 214 211 209 212 210 209 211 213 211 210 212 211 209 213 219 219 215 209 208 212 214 215 219 222 219 217 214 210 210 216 222 221 218
168 159 141 149 141 118 130 149 165 177 189 204 200 182 175 184 185 186 197 206 215 219 214 212 211 217 244 250 238 222 222 218 214 214 213 213 214 215 217 216 213 211 208 209 216 220 218 215 213 213 215 217 218 222 223 219 217 219 218 219 224 224 221
189 167 154 149 130 142 163 153 164 180 184 204 216 201 187 186 186 184 188 197 206 211 211 207 205 212 230 239 234 228 224 221 223 224 217 216 216 216 220 222 220 217 211 208 213 218 220 220 217 213 215 218 218 219 224 222 218 220 221 220 222 223 223
224 166 162 182 161 169 174 148 162 182 191 200 213 219 210 200 194 192 194 202 207 205 197 194 199 208 221 234 235 229 222 218 224 230 226 221 221 221 223 225 226 224 218 214 213 213 217 222 221 217 218 223 221 217 221 225 222 219 218 219 220 221 225
259 176 172 192 181 182 188 170 180 183 196 210 207 215 227 222 212 210 211 212 217 217 203 192 197 203 208 221 228 225 221 220 221 225 227 228 230 228 222 223 230 233 227 220 217 216 216 221 226 223 220 223 225 224 224 225 225 220 216 218 219 221 226
305 301 174 187 190 215 231 231 231 210 202 232 235 222 226 230 227 228 228 220 217 221 216 207 206 204 205 215 219 216 215 220 223 223 223 228 237 235 223 219 227 238 238 227 220 220 215 216 226 228 222 222 225 228 230 229 233 231 219 215 216 217 220
316 335 352 246 223 240 257 255 263 265 235 233 257 250 237 235 237 240 243 245 241 228 225 230 229 225 225 223 220 219 217 216 223 227 226 227 235 237 228 221 223 234 242 236 227 222 214 215 225 231 232 228 222 226 233 235 245 247 226 211 211 214 217
318 331 336 312 275 269 280 269 266 276 278 271 274 273 262 250 249 251 246 247 251 239 229 233 231 227 229 225 219 222 222 218 222 229 230 230 231 230 226 223 222 227 236 240 236 228 221 218 222 227 234 236 230 230 233 231 235 241 225 212 213 217 221
305 330 333 328 324 309 300 293 280 277 279 282 280 279 277 265 255 259 253 236 234 231 226 229 229 225 225 223 219 220 219 216 219 224 228 229 228 227 223 219 218 220 226 237 239 235 229 223 222 225 230 236 239 237 234 230 229 231 225 218 218 220 221
257 326 307 292 293 327 332 304 283 279 276 272 271 267 269 270 264 260 258 247 237 227 221 224 226 224 222 222 220 219 217 217 216 215 219 222 222 224 224 220 217 214 216 225 234 238 235 226 223 226 228 232 238 239 239 239 233 228 226 223 222 221 220
253 256 264 273 303 32 11 323 293 289 283 269 265 262 261 267 271 268 264 260 257 247 235 230 229 227 226 224 220 218 217 216 215 212 212 216 217 217 220 221 220 215 213 217 223 230 235 230 224 224 227 230 232 233 238 242 239 232 229 227 226 223 219
300 291 298 337 347 2 10 343 322 308 294 277 269 271 274 271 270 275 276 273 271 265 254 243 235 231 230 229 226 223 220 218 216 213 212 215 216 214 214 217 220 219 216 216 219 221 226 234 233 227 226 229 232 232 233 238 241 239 233 231 229 223 219
316 327 345 353 336 337 349 336 324 316 301 289 279 282 293 288 280 281 286 282 275 272 268 257 245 237 235 235 234 231 229 226 223 221 220 220 218 215 214 212 213 217 217 216 218 218 219 227 237 234 227 226 230 232 233 236 240 239 234 230 226 220 216
317 331 340 335 331 338 335 320 313 314 303 298 303 307 306 302 302 300 294 290 281 276 278 271 256 247 242 240 237 234 232 231 229 226 224 223 221 217 213 209 208 211 214 214 216 216 216 219 229 239 241 234 229 233 239 239 236 235 230 226 223 219 216
303 311 319 328 341 335 316 308 319 334 346 1 341 324 305 296 301 309 312 309 301 292 296 293 272 257 246 240 236 235 232 229 228 226 222 221 219 211 205 205 206 208 211 212 212 213 215 217 219 231 252 268 256 247 254 249 237 231 224 216 215 218 219
322 316 326 338 342 326 316 330 3 5 356 354 342 336 331 293 284 309 354 355 344 339 328 311 294 272 255 245 236 234 231 228 228 227 219 214 208 201 202 205 207 210 211 211 210 209 206 206 209 220 243 269 264 247 238 236 231 223 216 213 213 216 221
346 333 338 345 348 347 355 18 38 30 351 339 343 343 336 318 295 25 47 32 13 9 1 343 335 315 283 263 243 232 228 227 230 231 226 218 207 203 207 208 208 211 210 208 210 209 196 192 196 207 232 246 245 231 212 210 212 209 209 214 218 222 228
18 355 350 360 9 16 32 46 47 33 360 2 11 353 325 318 347 40 45 35 22 21 25 26 25 16 1 345 292 239 229 230 233 232 224 213 201 200 207 208 209 212 211 208 210 202 177 176 187 195 196 198 208 209 190 185 195 205 214 223 228 230 236
37 23 13 18 20 24 45 63 50 26 21 32 27 360 314 314 11 54 51 39 34 33 34 40 45 44 40 37 38 47 167 203 205 212 210 197 187 193 205 206 204 205 207 208 206 193 172 167 175 187 187 176 187 213 206 175 190 218 236 245 240 233 233
54 36 27 27 26 25 40 72 68 32 26 41 31 358 319 334 26 54 62 52 48 48 50 57 61 60 56 52 52 64 84 121 146 161 178 180 182 197 208 206 199 195 197 200 195 178 166 158 152 158 169 174 185 201 198 180 199 230 246 248 241 234 232
70 44 32 33 34 31 35 56 58 26 15 35 26 356 345 16 38 47 55 58 59 62 67 72 69 66 66 62 60 66 73 84 105 118 128 144 163 182 196 199 194 188 184 181 163 135 128 138 145 151 160 168 173 176 177 182 198 220 237 238 236 236 229
79 48 44 46 42 42 44 47 49 38 34 47 27 5 11 21 25 37 47 53 67 74 70 70 73 70 67 67 65 67 69 70 80 93 100 110 125 136 138 144 153 154 148 140 135 129 130 150 170 171 166 168 169 165 167 185 205 214 215 199 177 173 174
71 38 50 51 46 53 53 42 39 53 57 55 41 23 27 25 18 26 41 48 66 82 78 73 75 76 73 73 71 71 72 71 72 80 87 93 100 103 101 104 113 117 115 113 121 130 138 152 170 173 167 169 172 170 171 185 204 207 198 179 162 158 159
78 54 66 62 51 58 55 38 40 58 58 62 73 63 49 43 32 27 34 43 56 81 93 86 77 74 75 75 75 76 77 74 74 77 82 87 91 92 90 87 91 98 102 106 114 123 131 142 157 169 172 171 170 170 177 184 181 175 171 167 164 161 161
136 102 79 78 69 64 56 43 63 73 69 82 96 94 79 75 63 42 31 37 47 65 87 89 80 75 74 72 74 77 77 77 80 82 83 85 88 91 89 85 84 87 93 101 110 118 127 140 153 164 175 173 164 158 160 160 153 148 148 151 151 153 156
133 113 82 74 75 73 68 60 72 83 83 87 99 108 94 81 75 60 38 37 57 76 88 91 87 83 82 81 82 82 81 82 86 89 87 86 86 87 88 86 83 82 85 93 104 115 124 135 144 151 160 163 158 154 149 143 140 136 131 127 128 135 141